Location: Liscomb Game Sanctuary
(45.1633°N, 62.5575°W)
Time: 19:16:09
(UTC-03:00)

MOS 1 - Pass Details

Date: 22 February 2018
Orbit: 879 x 891 km, 99.2° (Epoch: 18 June)

Event Time Altitude Azimuth Distance (km) Brightness Sun altitude
Rises 18:03:58 0° 153° (SSE) 3,468 7.2 -3.6°
Reaches altitude 10° 18:06:21 10° 151° (SSE) 2,534 6.5 -4.0°
Maximum altitude 18:11:55 64° 71° (ENE) 974 4.3 -5.0°
Drops below altitude 10° 18:17:33 10° 351° (N) 2,559 6.7 -6.0°
Sets 18:19:58 0° 348° (NNW) 3,505 7.5 -6.4°
